1,427,657개(31209/71383페이지)
LECTURE
번호 제목 글쓴이 조회 날짜
803497 Heads Up Poker Strategy KilicTravis5490 3 2022.02.16 10:22
803496 Postgraduate Research Paper Writing Help SoelbergStanton2338 4 2022.02.16 10:22
803495 VIA-WOMP • Projekt O Przyznanie świadcze AlvarezStorgaard9254 3 2022.02.16 10:22
803494 Maple Leafs' Jason Spezza Has Suspension BraunWiggins3423 9 2022.02.16 10:22
803493 4 Secrets To Winning Poker In Texas Hold BurchVasquez6834 5 2022.02.16 10:22
803492 Need To Have A Extra Appealing 301 Redir HinrichsenGuy5640 10 2022.02.16 10:21
803491 Uzasadnienie Sądzie O Spłatę Ratalną Zad TempleHamilton9166 6 2022.02.16 10:21
803490 Search Engine Optimisation Agency Banbur 사진 SchultzAcosta1194 3 2022.02.16 10:21
803489 Wig Shop Alterations: 5 Actionable Sugge SvenningsenGallagher8841 5 2022.02.16 10:21
803488 Tips To Buy Audio Card For Gaming AbbottDwyer5554 5 2022.02.16 10:21
803487 Folding Poker Tables produced A Differen LoweDawson3744 5 2022.02.16 10:21
803486 XXX Japan XXXJapan Video MasseyGlud6633 3 2022.02.16 10:21
803485 Redesigning Doesn't Must Be A Chore VangBright8973 4 2022.02.16 10:20
803484 PostGraduate Essay Writing Service DouglasKaufman1775 5 2022.02.16 10:20
803483 Easy steps to Self-Care ShortAgger6556 11 2022.02.16 10:20
803482 Learn How To Play Poker - The Easy Way SalinasWiggins8088 6 2022.02.16 10:20
803481 I Liceum Ogólnokształcące Im. Henryka Si BendtsenKofoed2268 4 2022.02.16 10:20
803480 8 Actionable Recommendations on Mink Las LudvigsenSteffensen8409 6 2022.02.16 10:20
803479 kapan mesti stop dari permainan slots on 사진 BorregaardBowden8946 3 2022.02.16 10:20
803478 What Everyone Should Know About Fun Serv EskesenHermann9714 71 2022.02.16 10:20